Weather Roundup
Issued by NWS

Home | Current Version | Previous Version | Graphics & Text | Print | Product List | Glossary Off
Versions: 1 2 3 4 5 6 7 8 9 10 11 12 13 14 15 16 17 18 19 20 21 22 23 24 25 26 27 28 29 30 31 32 33 34 35 36 37 38 39 40 41 42 43 44 45 46 47 48 49 50

000
NZUS93 KARX 042010
HRRWXR

CURRENT HOURLY OBSERVATIONS ACROSS
MUCH OF THE UPPER MISSISSIPPI VALLEY
NATIONAL WEATHER SERVICE LA CROSSE WI
200 PM CST WED MAR 04 2015


...SOUTHEAST MINNESOTA...


CITY           SKY/WX    TMP DP  RH WIND       PRES   REMARKS
ROCHESTER      PTSUNNY   10   0  63 NW18      30.18  WCI  -8
ROCHESTER/MAYO CLOUDY    10  -5  51 NW20      30.19S WCI  -9
WINONA         SUNNY     14   0  52 NW15G23   30.22F WCI  -1
AUSTIN         SUNNY     10   0  61 NW16G23   30.20S WCI  -7
ALBERT LEA     MOSUNNY   12   1  62 NW9G16    30.21S WCI   0
DODGE CENTER   MOSUNNY   10   0  61 W14G24    30.18F WCI  -5
PRESTON        SUNNY     10  -2  60 NW15      30.19S WCI  -7
OWATONNA       MOSUNNY   12   0  57 NW18      30.22S WCI  -5
FARIBAULT      MOSUNNY   10   0  61 W16G23    30.23S WCI  -7
$$

...ELSEWHERE IN MINNESOTA...


CITY           SKY/WX    TMP DP  RH WIND       PRES   REMARKS
MINNEAPOLIS    MOSUNNY   12  -5  46 NW16G26   30.22  WCI  -5
INTNL FALLS    PTSUNNY    0 -14  51 NW14      30.14  WCI -19
DULUTH         PTSUNNY    2 -13  49 NW17G28   30.10R WCI -18
RED WING       SUNNY     12  -6  44 W9G17     30.22S WCI   0
REDWOOD FALLS  CLOUDY    11  -4  51 NW17G23   30.27F WCI  -6
MANKATO        PTSUNNY   10   0  61 NW15      30.24F WCI  -6
FAIRMONT       CLOUDY    12   1  62 NW18      30.22S WCI  -5
$$

...SOUTHWEST WISCONSIN...


CITY           SKY/WX    TMP DP  RH WIND       PRES   REMARKS
LA CROSSE      MOSUNNY   17  -1  45 NW13      30.20  WCI   4
PRAIRIE DU CHI SUNNY     15  -6  38 W14       30.24S WCI   0
BOSCOBEL       SUNNY     17  -4  39 W10G18    30.22  WCI   5
LONE ROCK      SUNNY     17  -7  34 W18       30.19  WCI   1
PLATTEVILLE    SUNNY     15  -1  51 W13       30.18F WCI   0
FORT MC COY    SUNNY     15  -4  41 W17G23    30.18F WCI  -1
CAMP DOUGLAS   SUNNY     14  -4  44 W21G28    30.15F WCI  -4
VIROQUA        FAIR      13  -3  48 W10       30.14F WCI   0
WIS DELLS      NOT AVBL
$$

...ELSEWHERE IN WISCONSIN...


CITY           SKY/WX    TMP DP  RH WIND       PRES   REMARKS
MILWAUKEE      MOSUNNY   19  -2  39 NW18G25   30.14  WCI   4
MADISON        MOSUNNY   18  -6  34 W12G20    30.15  WCI   5
GREEN BAY      SUNNY     14  -4  44 W20G26    30.08  WCI  -3
EAU CLAIRE     MOSUNNY   10  -7  46 W16       30.17  WCI  -7
BLACK RVR FLS  MOCLDY    14  -7  38 W16G24    30.17F WCI  -2
MEDFORD        MOSUNNY    8 -10  44 W18G29    30.05F HAZE    WCI -11
WAUSAU         PTSUNNY    8  -7  50 W21G30    30.05  WCI -12
WIS RAPIDS     MOSUNNY   12  -9  38 W17G30    30.12  WCI  -5
MARSHFIELD     PTSUNNY   10  -9  42 W21G29    30.09  WCI  -9
RICE LAKE      SUNNY      9 -11  40 W14G22    30.16F WCI  -8
$$

...NORTHEAST IOWA...


CITY           SKY/WX    TMP DP  RH WIND       PRES   REMARKS
DECORAH        SUNNY     10  -6  48 NW12G18   30.19F WCI  -4
MASON CITY     SUNNY     13   2  61 NW10      30.23  WCI   0
CHARLES CITY   SUNNY     12   0  57 W13       30.24F WCI  -3
OELWEIN        SUNNY     12   0  57 NW10      30.24F WCI  -1
$$

...ELSEWHERE IN IOWA...


CITY           SKY/WX    TMP DP  RH WIND       PRES   REMARKS
DES MOINES     PTSUNNY   28   7  41 W20       30.24  WCI  15
IOWA CITY      SUNNY     17   2  51 NW13      30.29  WCI   4
FORT DODGE     CLOUDY    23   7  50 NW13G22   30.22S WCI  11
$$

...NORTHERN ILLINOIS...


CITY           SKY/WX    TMP DP  RH WIND       PRES   REMARKS
CHICAGO-OHARE  PTSUNNY   21   6  52 N15       30.13F WCI   8
CHICAGO-MIDWAY PTSUNNY   22   5  48 NW15      30.14S WCI   9
MOLINE         SUNNY     19   2  47 NW18G24   30.26  WCI   4
ROCKFORD       MOSUNNY   17   2  51 NW14      30.19  WCI   3
PEORIA         MOSUNNY   21   3  45 NW12      30.24  WCI   9
$$

NOTE: "FAIR" INDICATES FEW OR NO CLOUDS BELOW 12,000 FEET WITH NO
SIGNIFICANT WEATHER AND/OR OBSTRUCTIONS TO VISIBILITY. WIND
SPEEDS ARE IN MILES-PER-HOUR.



USA.gov is the U.S. government's official web portal to all federal, state and local government web resources and services.